OBJECT AJ, 67280

Orbit data source: Space-Track

You're viewing an Uncataloged Satellite

Recently launched and/or uncataloged satellites may have evolving metadata. Metadata may include but not limited to: Owner, Maufacturer, Bus, Motor, and Mission.

OBJECT AJ, 67280 is a satellite in SSO that was launched on Sun, 28 Dec 2025 UTC via a SOYUZ-2-1B launch vehicle from the Vostochny Cosmodrome (VOSTO). Unknown objects in Earth's orbit typically refer to objects detected orbiting the Earth but have not yet been identified or cataloged. These objects could be anything from previously untracked satellites, spent rocket stages, debris from satellite collisions, or even natural meteoroids temporarily captured by Earth's gravity.

Loading next visibility...
Identifier
67280, 2025-313AJ
Orbit
SSO
Country
Flag of TBDTBD
Related business
None
Manufacturer
Unknown
Mission
Operational Commercial Communications
Bus & Motor
Unknown
Mass
Unknown
Launch date (UTC)
2025-12-28 (6 months ago)
Launch vehicle
SOYUZ-2-1B
Launch site
Vostochny Cosmodrome (VOSTO)
Object type
Unknown
Shape & HBR
Box, 0.1 m
Radar Cross Section
0.035 m², Medium (>0.1 m² and < 1m²)

Expand to show TLE details & history
Last TLE update: 1 day ago

TLE from 1 day ago
0 OBJECT AJ
1 67280U 25313AJ  26170.77418419  .00003869  00000-0  16988-3 0  9995
2 67280  97.3994 245.4845 0012848 359.4734   0.6487 15.22458473 26347
Epoch: 2026-06-19T18:34Z
TLE epoch observation values (Epoch: 2026-06-19T18:34:49.514Z)
Latitude
0.00004°
Longitude
58.77985°
Altitude
492.685 km
Speed
7.623 km/s
True Right ascension
16h 21m 56s
True Declination
0° 00' 00"
Sunlit
Object was in full shadow at epoch
Visualization orbit readout
Latitude
Unknown
Longitude
Unknown
Altitude
Unknown
Speed
Unknown
Apparent Right ascension
Unknown
Apparent Declination
Unknown
Sunlit
N/A
Visualization observer readout
Local Sidereal Time
07:18:38
Azimuth
Unknown
Elevation
Unknown
Doppler factor
Unknown
Orbital elements
Apogee altitude
504.221 km
Perigee altitude
486.559 km
Semi-major axis
6,873.527 km
Eccentricity
0.00128
Inclination
97.3994°
RAAN
245.4845°
Arg. of periapsis
359.4734°
True anomaly
0.65037°
Mean anomaly
0.6487°
Eccentric anomaly
0.64953°
Mean motion
3.80867 °/min
Orbital period
94.52 mins
BSTAR
0.00016988
Loading maneuver chart data...
Computing Atmospheric mass density...
Loading historical data...
Loading historical data...
Loading historical data...
Loading historical data...
Loading historical data...
Loading historical data...
Loading historical data...

Documentation

Showing up to 5 results
|